Language: 


Des rapports , des résumés tant et plus, au choix de chacun....


Données Historiques de Météogheer
Journalier Rapport pour Juillet 1, 2017 Unitée:  Impériale    Métrique   Les deux
Suivant Jour »
Journalier Hebdomadaire Mensuel Annuel Sur mesure
  Max: Min: Moyenne:
Température: 74.3 °F 57.7 °F 64.4 °F
Point de rosée: 60.8 °F 51.8 °F 56.8 °F
Humidité: 98% 48% 78%
Vent: 12.3mph 0mph 4.3mph
Rafales: 17.4mph - -
Vent- - WNW
Pression: 30.1 in 29.7 in -
Pluie: 0 in    
Historical Graphs
 
 
Données tabulaires pour Juillet 1, 2017
Heure Température Point de rosée Pression Vent Vent Rafales Humidité Pluie Taux (Horaire) Conditions
00:00 58.6 °F 53.6 °F 29.7 in Calm   2 mph 84% 0 in
00:05 58.5 °F 53.6 °F 29.7 in Calm   2 mph 84% 0 in
00:06 58.5 °F 53.6 °F 29.7 in Calm   2 mph 84% 0 in
00:11 58.3 °F 53.6 °F 29.7 in Calm     84% 0 in
00:16 57.9 °F 53.6 °F 29.7 in Calm     84% 0 in
00:21 57.9 °F 53.6 °F 29.7 in Calm     84% 0 in
00:26 57.7 °F 53.6 °F 29.7 in Calm     85% 0 in
00:32 57.7 °F 53.6 °F 29.8 in Calm     85% 0 in
00:37 57.9 °F 53.6 °F 29.8 in Calm     86% 0 in
00:42 57.9 °F 53.6 °F 29.8 in Calm     86% 0 in
00:47 58.1 °F 55.4 °F 29.7 in Calm     87% 0 in
00:52 58.1 °F 55.4 °F 29.7 in Calm     87% 0 in
00:57 58.3 °F 55.4 °F 29.7 in Calm     87% 0 in
01:02 58.3 °F 55.4 °F 29.7 in Calm     87% 0 in
01:07 58.5 °F 55.4 °F 29.7 in Calm   4.9 mph 88% 0 in
01:12 58.8 °F 55.4 °F 29.7 in West 3.1 mph 5.8 mph 89% 0 in
01:17 59 °F 55.4 °F 29.8 in WSW 3.4 mph 6.5 mph 88% 0 in
01:22 59.4 °F 57.2 °F 29.8 in West 3.8 mph 6.5 mph 89% 0 in
01:27 59.5 °F 57.2 °F 29.8 in West 5.4 mph 6 mph 89% 0 in
01:32 59.7 °F 57.2 °F 29.7 in West 4 mph 7.2 mph 89% 0 in
01:37 59.7 °F 57.2 °F 29.7 in West 6.3 mph 7.2 mph 89% 0 in
01:42 60.1 °F 57.2 °F 29.7 in West 5.6 mph 6.5 mph 89% 0 in
01:47 60.1 °F 57.2 °F 29.8 in West 6.3 mph 8.7 mph 89% 0 in
01:52 60.3 °F 57.2 °F 29.8 in West 7.6 mph 8.7 mph 89% 0 in
01:57 60.3 °F 57.2 °F 29.8 in West 5.6 mph 7.8 mph 89% 0 in
02:02 60.4 °F 57.2 °F 29.8 in West 3.6 mph 7.8 mph 89% 0 in
02:07 60.3 °F 57.2 °F 29.8 in Calm   7.4 mph 89% 0 in
02:12 60.3 °F 57.2 °F 29.8 in WSW 1.1 mph 6 mph 88% 0 in
02:18 60.1 °F 57.2 °F 29.8 in Calm   5.6 mph 88% 0 in
02:23 60.1 °F 57.2 °F 29.8 in WSW 2.7 mph 4.3 mph 89% 0 in
02:33 59.9 °F 57.2 °F 29.8 in Calm   4.3 mph 89% 0 in
02:38 59.9 °F 57.2 °F 29.8 in WSW 3.6 mph 6 mph 89% 0 in
02:43 59.9 °F 57.2 °F 29.8 in WSW 3.8 mph 6 mph 90% 0 in
02:48 59.9 °F 57.2 °F 29.8 in WSW 3.1 mph 6 mph 89% 0 in
02:53 59.9 °F 57.2 °F 29.8 in WSW 5.8 mph 6.3 mph 90% 0 in
02:58 59.9 °F 57.2 °F 29.8 in WSW 5.6 mph 6.3 mph 90% 0 in
03:03 59.9 °F 57.2 °F 29.8 in Calm   6.3 mph 90% 0 in
03:08 59.7 °F 57.2 °F 29.8 in Calm   5.6 mph 90% 0 in
03:13 59.7 °F 57.2 °F 29.8 in West 4.3 mph 4.9 mph 90% 0 in
03:18 59.7 °F 57.2 °F 29.8 in Calm   5.6 mph 90% 0 in
03:24 59.9 °F 57.2 °F 29.8 in West 4 mph 5.6 mph 91% 0 in
03:29 59.9 °F 57.2 °F 29.8 in West 1.3 mph 6.3 mph 91% 0 in
03:34 60.1 °F 57.2 °F 29.8 in WNW 0.9 mph 6.3 mph 91% 0 in
03:39 60.1 °F 57.2 °F 29.8 in West 3.1 mph 4.3 mph 92% 0 in
03:44 60.1 °F 57.2 °F 29.8 in Calm   7.4 mph 92% 0 in
03:49 60.1 °F 57.2 °F 29.8 in Calm   7.4 mph 92% 0 in
03:54 60.1 °F 57.2 °F 29.8 in Calm   3.4 mph 92% 0 in
03:59 60.1 °F 59 °F 29.8 in Calm   2.9 mph 93% 0.01 in
04:04 60.3 °F 59 °F 29.8 in Calm   3.8 mph 94% 0.01 in
04:09 60.3 °F 59 °F 29.8 in WNW 7.8 mph 7.8 mph 94% 0.02 in
04:14 60.3 °F 59 °F 29.8 in NNW 3.8 mph 10.7 mph 94% 0.02 in
04:19 60.3 °F 59 °F 29.8 in WNW 3.4 mph 10.7 mph 95% 0.04 in
04:24 60.1 °F 59 °F 29.8 in North 4 mph 8.1 mph 95% 0.05 in
04:29 60.1 °F 59 °F 29.8 in NW 7.4 mph 7.4 mph 95% 0.05 in
04:34 60.1 °F 59 °F 29.8 in Calm   7.4 mph 95% 0.06 in
04:40 60.1 °F 59 °F 29.8 in WNW 5.8 mph 8.7 mph 95% 0.06 in
04:45 59.9 °F 59 °F 29.8 in NNW 3.4 mph 8.7 mph 95% 0.06 in
04:50 59.7 °F 59 °F 29.8 in NW 2.7 mph 5.8 mph 95% 0.07 in
04:55 59.7 °F 59 °F 29.8 in WNW 2.7 mph 5.8 mph 95% 0.07 in
05:00 59.7 °F 59 °F 29.8 in West 3.1 mph 5.8 mph 95% 0.07 in
05:05 59.5 °F 59 °F 29.8 in West 7.8 mph 7.8 mph 95% 0.07 in
05:10 59.5 °F 59 °F 29.8 in West 5.4 mph 7.8 mph 95% 0.06 in
05:16 59.5 °F 59 °F 29.8 in WNW 2.9 mph 7.4 mph 95% 0.06 in
05:21 59.5 °F 59 °F 29.8 in WNW 5.8 mph 6 mph 95% 0.04 in
05:26 59.4 °F 59 °F 29.8 in WNW 2.7 mph 6.3 mph 96% 0.04 in
05:31 59.4 °F 59 °F 29.8 in WSW 2 mph 6.3 mph 96% 0.06 in
05:36 59.4 °F 59 °F 29.8 in NNW 6.3 mph 6.5 mph 96% 0.05 in
05:41 59.4 °F 59 °F 29.8 in NNW 7.8 mph 8.1 mph 96% 0.06 in
05:46 59.2 °F 59 °F 29.8 in WSW 5.4 mph 8.1 mph 96% 0.05 in
05:51 59.2 °F 59 °F 29.8 in NNW 5.8 mph 8.7 mph 96% 0.06 in
05:56 59 °F 59 °F 29.8 in North 1.6 mph 8.7 mph 96% 0.04 in
06:01 58.8 °F 59 °F 29.8 in North 3.4 mph 8.1 mph 97% 0.05 in
06:06 58.8 °F 59 °F 29.8 in Calm   7.6 mph 97% 0.05 in
06:11 58.6 °F 57.2 °F 29.8 in North 3.4 mph 10.5 mph 97% 0.05 in
06:16 58.5 °F 57.2 °F 29.8 in North 7.2 mph 10.5 mph 97% 0.06 in
06:21 58.5 °F 57.2 °F 29.8 in NNW 7.8 mph 9.6 mph 97% 0.06 in
06:26 58.3 °F 57.2 °F 29.8 in WNW 4.3 mph 7.8 mph 97% 0.07 in
06:31 58.3 °F 57.2 °F 29.8 in North 4.3 mph 8.1 mph 97% 0.05 in
06:36 58.1 °F 57.2 °F 29.8 in NW 4 mph 8.1 mph 97% 0.05 in
06:41 57.9 °F 57.2 °F 29.8 in North 3.6 mph 7.8 mph 97% 0.04 in
06:46 57.9 °F 57.2 °F 29.8 in NW 4.3 mph 6.3 mph 97% 0.05 in
06:51 57.9 °F 57.2 °F 29.8 in North 1.1 mph 9.6 mph 97% 0.05 in
06:56 57.9 °F 57.2 °F 29.8 in NNW 3.4 mph 9.6 mph 97% 0.05 in
07:01 57.9 °F 57.2 °F 29.8 in North 3.6 mph 8.9 mph 97% 0.04 in
07:07 57.7 °F 57.2 °F 29.8 in NNW 3.8 mph 5.4 mph 97% 0.05 in
07:12 57.7 °F 57.2 °F 29.8 in WSW 5.8 mph 5.8 mph 97% 0.04 in
07:17 57.7 °F 57.2 °F 29.8 in WSW 2.5 mph 6.3 mph 97% 0.04 in
07:22 57.9 °F 57.2 °F 29.8 in NNW 0.9 mph 6.3 mph 97% 0.05 in
07:27 57.7 °F 57.2 °F 29.8 in NNE 3.4 mph 4.9 mph 97% 0.04 in
07:32 57.7 °F 57.2 °F 29.8 in Calm   7.4 mph 97% 0.04 in
07:37 57.9 °F 57.2 °F 29.8 in Calm   7.4 mph 97% 0.04 in
07:42 57.7 °F 57.2 °F 29.8 in Calm   4.3 mph 97% 0.05 in
07:47 57.9 °F 57.2 °F 29.8 in WNW 5.4 mph 6.5 mph 97% 0.03 in
07:52 57.9 °F 57.2 °F 29.8 in North 2.5 mph 6.5 mph 97% 0.03 in
07:57 57.7 °F 57.2 °F 29.8 in West 3.4 mph 5.4 mph 97% 0.03 in
08:02 57.7 °F 57.2 °F 29.8 in WNW 2 mph 8.5 mph 97% 0.04 in
08:03 57.7 °F 57.2 °F 29.8 in WNW 2.5 mph 8.5 mph 97% 0.04 in
08:08 57.7 °F 57.2 °F 29.8 in West 4.3 mph 8.5 mph 97% 0.05 in
08:13 57.9 °F 57.2 °F 29.8 in NE 2.5 mph 8.1 mph 97% 0.05 in
08:18 57.9 °F 57.2 °F 29.8 in West 8.5 mph 8.5 mph 97% 0.05 in
08:23 57.9 °F 57.2 °F 29.8 in NNW 1.3 mph 11 mph 97% 0.04 in
08:28 58.1 °F 59 °F 29.8 in West 8.1 mph 11 mph 98% 0.07 in
08:33 58.3 °F 59 °F 29.8 in WNW 0.9 mph 8.1 mph 98% 0.07 in
08:38 58.5 °F 59 °F 29.8 in Calm   7.6 mph 98% 0.06 in
08:43 58.5 °F 59 °F 29.8 in NNW 4.7 mph 6.3 mph 98% 0.06 in
08:48 58.6 °F 59 °F 29.8 in WSW 3.4 mph 7.8 mph 98% 0.06 in
08:53 58.8 °F 59 °F 29.8 in West 1.1 mph 7.8 mph 98% 0.06 in
08:58 59.2 °F 59 °F 29.8 in WSW 4 mph 7.6 mph 98% 0.05 in
09:03 59.4 °F 59 °F 29.8 in North 2.9 mph 7.8 mph 98% 0.05 in
09:08 59.5 °F 59 °F 29.8 in NNW 4.5 mph 8.5 mph 98% 0.04 in
09:13 59.7 °F 59 °F 29.8 in NW 3.8 mph 8.5 mph 98% 0.04 in
09:18 59.9 °F 60.8 °F 29.9 in North 3.1 mph 8.5 mph 98% 0.04 in
09:23 60.1 °F 60.8 °F 29.9 in NNW 5.4 mph 8.5 mph 98% 0.02 in
09:28 60.1 °F 59 °F 29.9 in North 4 mph 12.5 mph 97% 0.01 in
09:33 60.3 °F 59 °F 29.8 in NW 1.1 mph 12.5 mph 97% 0.01 in
09:38 60.4 °F 59 °F 29.8 in North 2.7 mph 8.1 mph 97% 0.01 in
09:43 60.4 °F 59 °F 29.8 in NW 6.5 mph 9.2 mph 97% 0.01 in
09:49 60.6 °F 60.8 °F 29.9 in NNW 4.9 mph 9.2 mph 97% 0.01 in
09:54 60.8 °F 60.8 °F 29.9 in WNW 6.3 mph 8.5 mph 96% 0 in
09:59 61.2 °F 60.8 °F 29.9 in Calm   8.5 mph 96% 0 in
10:04 61.7 °F 60.8 °F 29.9 in NNW 4 mph 10.1 mph 96% 0 in
10:09 62.1 °F 60.8 °F 29.9 in WNW 6.3 mph 10.1 mph 95% 0 in
10:14 62.2 °F 60.8 °F 29.9 in NNW 4 mph 8.7 mph 95% 0 in
10:19 62.2 °F 60.8 °F 29.8 in NNW 7.6 mph 10.5 mph 94% 0 in
10:24 62.4 °F 60.8 °F 29.8 in North 7.6 mph 10.5 mph 94% 0 in
10:29 62.4 °F 60.8 °F 29.8 in NW 6.9 mph 14.8 mph 93% 0 in
10:34 62.8 °F 60.8 °F 29.8 in West 4.3 mph 14.8 mph 93% 0 in
10:39 63.1 °F 60.8 °F 29.8 in North 8.9 mph 10.1 mph 92% 0 in
10:44 63.7 °F 60.8 °F 29.8 in NW 5.6 mph 10.1 mph 92% 0 in
10:49 63.9 °F 60.8 °F 29.9 in West 3.6 mph 8.9 mph 92% 0 in
10:54 63.9 °F 60.8 °F 29.9 in NW 2.2 mph 10.5 mph 90% 0 in
10:59 63.9 °F 60.8 °F 29.9 in NNW 3.8 mph 10.5 mph 90% 0 in
11:04 64 °F 60.8 °F 29.9 in NNW 5.6 mph 9.4 mph 89% 0 in
11:09 64.4 °F 60.8 °F 29.9 in NNW 12.3 mph 12.3 mph 87% 0 in
11:14 64.8 °F 60.8 °F 29.9 in North 6.5 mph 13.6 mph 86% 0 in
11:19 64.8 °F 60.8 °F 29.9 in North 6.5 mph 13.6 mph 85% 0 in
11:24 65.1 °F 60.8 °F 29.9 in NNW 8.7 mph 10.7 mph 85% 0 in
11:29 65.3 °F 60.8 °F 29.9 in NNW 10.3 mph 12.1 mph 82% 0 in
11:34 65.3 °F 60.8 °F 29.9 in NNE 9.6 mph 12.3 mph 82% 0 in
11:39 65.1 °F 59 °F 29.9 in NNW 5.8 mph 12.8 mph 80% 0 in
11:45 65.1 °F 59 °F 29.9 in North 2.5 mph 12.8 mph 80% 0 in
11:50 65.5 °F 59 °F 29.9 in NW 7.8 mph 10.7 mph 80% 0 in
11:55 65.5 °F 59 °F 29.9 in NW 0.9 mph 10.1 mph 79% 0 in
12:00 65.8 °F 59 °F 29.9 in WNW 8.7 mph 10.7 mph 77% 0 in
12:05 65.8 °F 57.2 °F 29.9 in NNW 7.8 mph 10.7 mph 76% 0 in
12:10 66 °F 59 °F 29.9 in North 6.5 mph 10.1 mph 77% 0 in
12:15 66 °F 59 °F 29.9 in WNW 7.6 mph 10.7 mph 76% 0 in
12:21 66 °F 57.2 °F 29.9 in NNW 6 mph 10.7 mph 74% 0 in
12:26 66.2 °F 57.2 °F 29.9 in NW 7.4 mph 10.5 mph 73% 0 in
12:31 66.6 °F 59 °F 29.9 in NW 5.8 mph 8.5 mph 75% 0 in
12:36 66.7 °F 59 °F 29.9 in NW 3.1 mph 8.5 mph 74% 0 in
12:41 66.7 °F 57.2 °F 29.9 in NNW 4 mph 10.3 mph 72% 0 in
12:46 66.6 °F 57.2 °F 29.9 in North 7.8 mph 10.3 mph 72% 0 in
12:51 66.6 °F 57.2 °F 29.9 in ENE 7.4 mph 10.5 mph 72% 0 in
12:56 66.7 °F 57.2 °F 29.9 in WNW 6 mph 10.5 mph 72% 0 in
13:01 66.7 °F 57.2 °F 29.9 in NNW 10.3 mph 10.3 mph 71% 0 in
13:06 67.3 °F 57.2 °F 29.9 in NW 6.5 mph 10.3 mph 71% 0 in
13:11 67.6 °F 59 °F 29.9 in NW 4.9 mph 10.3 mph 72% 0 in
13:16 67.5 °F 57.2 °F 29.9 in North 6.5 mph 11.4 mph 70% 0 in
13:21 67.3 °F 57.2 °F 29.9 in NNW 6 mph 12.3 mph 70% 0 in
13:26 67.5 °F 57.2 °F 29.9 in ENE 6.3 mph 12.3 mph 71% 0 in
13:31 67.5 °F 57.2 °F 29.9 in WNW 5.6 mph 12.3 mph 70% 0 in
13:36 67.6 °F 57.2 °F 29.9 in NNE 10.5 mph 12.3 mph 70% 0 in
13:41 68 °F 57.2 °F 29.9 in NNW 8.7 mph 15.2 mph 68% 0 in
13:46 68.2 °F 57.2 °F 29.9 in NW 10.7 mph 15.2 mph 68% 0 in
13:51 67.8 °F 57.2 °F 29.9 in NNE 7.4 mph 12.5 mph 67% 0 in
13:56 68.5 °F 57.2 °F 29.9 in NNW 6 mph 12.5 mph 68% 0 in
14:01 68.4 °F 57.2 °F 29.9 in North 5.4 mph 12.3 mph 66% 0 in
14:06 68 °F 55.4 °F 29.9 in WNW 9.8 mph 12.3 mph 66% 0 in
14:11 67.8 °F 57.2 °F 29.9 in NE 3.1 mph 11 mph 68% 0 in
14:16 68.4 °F 57.2 °F 29.9 in NNW 4.3 mph 11 mph 69% 0 in
14:21 68.9 °F 59 °F 29.9 in NNW 8.7 mph 11.9 mph 69% 0 in
14:26 68.7 °F 57.2 °F 29.9 in East 3.8 mph 12.3 mph 68% 0 in
14:31 68.9 °F 59 °F 29.9 in North 6.3 mph 12.3 mph 68% 0 in
14:36 68.9 °F 59 °F 29.9 in NW 4.7 mph 12.1 mph 68% 0 in
14:41 69.3 °F 59 °F 29.9 in North 9.6 mph 11.4 mph 68% 0 in
14:46 69.8 °F 59 °F 29.9 in NNW 6.5 mph 10.3 mph 67% 0 in
14:51 70.3 °F 59 °F 29.9 in NNW 11 mph 11 mph 67% 0 in
14:56 70.7 °F 59 °F 29.9 in ENE 6.5 mph 11 mph 66% 0 in
15:01 70.7 °F 59 °F 29.9 in NW 8.7 mph 11.4 mph 65% 0 in
15:06 70.7 °F 59 °F 29.9 in North 11.9 mph 11.9 mph 65% 0 in
15:11 70 °F 57.2 °F 29.9 in North 4.9 mph 15.2 mph 63% 0 in
15:16 70 °F 55.4 °F 30 in NNW 8.5 mph 15.2 mph 62% 0 in
15:21 70.2 °F 55.4 °F 30 in North 8.5 mph 11.9 mph 61% 0 in
15:26 70.5 °F 57.2 °F 30 in East 5.6 mph 11.9 mph 62% 0 in
15:31 70.9 °F 57.2 °F 29.9 in North 6.3 mph 11.9 mph 61% 0 in
15:37 71.1 °F 55.4 °F 29.9 in East 10.1 mph 13.2 mph 58% 0 in
15:42 71.4 °F 57.2 °F 29.9 in North 3.6 mph 13.2 mph 60% 0 in
15:47 71.1 °F 55.4 °F 30 in North 7.2 mph 12.8 mph 56% 0 in
15:52 71.1 °F 53.6 °F 30 in North 6.9 mph 11 mph 55% 0 in
15:57 72.3 °F 53.6 °F 30 in North 7.6 mph 12.8 mph 52% 0 in
16:02 73.8 °F 55.4 °F 30 in NW 3.1 mph 12.8 mph 52% 0 in
16:07 72.1 °F 51.8 °F 30 in WNW 8.1 mph 13 mph 48% 0 in
16:12 71.8 °F 51.8 °F 30 in North 9.4 mph 15.4 mph 49% 0 in
16:17 71.6 °F 51.8 °F 30 in North 4.3 mph 15.4 mph 49% 0 in
16:19 71.6 °F 51.8 °F 30 in NNE 4.7 mph 15.4 mph 50% 0 in
16:24 72 °F 51.8 °F 30 in NW 7.2 mph 14.1 mph 49% 0 in
16:29 71.8 °F 51.8 °F 30 in NNW 4.3 mph 10.1 mph 49% 0 in
16:34 71.8 °F 53.6 °F 29.9 in NNW 9.8 mph 12.5 mph 51% 0 in
16:39 72.1 °F 55.4 °F 29.9 in North 5.8 mph 12.5 mph 54% 0 in
16:44 72 °F 55.4 °F 29.9 in ENE 7.8 mph 12.1 mph 54% 0 in
16:49 72.3 °F 55.4 °F 30 in NW 8.7 mph 12.1 mph 55% 0 in
16:54 72.9 °F 55.4 °F 30 in West 9.2 mph 14.3 mph 55% 0 in
16:59 73.4 °F 55.4 °F 30 in North 6 mph 14.8 mph 51% 0 in
17:04 73.9 °F 55.4 °F 30 in North 11.2 mph 17.4 mph 52% 0 in
17:09 73.4 °F 55.4 °F 30 in NNW 6.5 mph 17.4 mph 52% 0 in
17:14 73 °F 55.4 °F 30 in WNW 5.8 mph 14.5 mph 54% 0 in
17:19 73.2 °F 55.4 °F 30 in North 7.2 mph 12.5 mph 54% 0 in
17:24 73.8 °F 57.2 °F 30 in NNW 5.8 mph 10.5 mph 54% 0 in
17:26 74.1 °F 57.2 °F 30 in North 3.6 mph 10.5 mph 54% 0 in
17:31 74.1 °F 55.4 °F 30 in NNW 7.6 mph 11.4 mph 52% 0 in
17:36 74.1 °F 55.4 °F 30 in NW 3.8 mph 11.4 mph 52% 0 in
17:41 74.3 °F 57.2 °F 30 in NNW 2 mph 11 mph 53% 0 in
17:51 73.8 °F 55.4 °F 30 in NNW 7.2 mph 12.8 mph 53% 0 in
17:56 73.6 °F 55.4 °F 30 in NNW 6 mph 12.8 mph 53% 0 in
18:01 73.8 °F 55.4 °F 30 in West 5.8 mph 10.7 mph 53% 0 in
18:06 73.4 °F 55.4 °F 30 in North 8.1 mph 9.8 mph 51% 0 in
18:11 73 °F 55.4 °F 30 in WNW 2 mph 10.5 mph 52% 0 in
18:16 73 °F 55.4 °F 30 in NNW 4.5 mph 10.5 mph 52% 0 in
18:22 73 °F 55.4 °F 30 in NE 3.6 mph 10.5 mph 52% 0 in
18:27 72.9 °F 55.4 °F 30 in North 5.8 mph 10.5 mph 52% 0 in
18:32 73 °F 55.4 °F 30 in NNW 5.6 mph 10.5 mph 53% 0 in
18:37 72.9 °F 53.6 °F 30 in NW 6.3 mph 11 mph 51% 0 in
18:42 73.2 °F 55.4 °F 30 in North 6.5 mph 11 mph 51% 0 in
18:47 73 °F 55.4 °F 30 in NNW 7.8 mph 10.1 mph 52% 0 in
18:50 73 °F 53.6 °F 30 in North 5.4 mph 12.1 mph 51% 0 in
18:55 72.9 °F 53.6 °F 30 in WNW 6 mph 12.1 mph 51% 0 in
19:00 73 °F 53.6 °F 30 in North 2.7 mph 8.7 mph 51% 0 in
19:05 72.9 °F 53.6 °F 30 in NNE 11 mph 11 mph 51% 0 in
19:10 72.1 °F 53.6 °F 30 in NW 4 mph 11 mph 51% 0 in
19:15 72 °F 53.6 °F 30 in NNW 8.1 mph 10.1 mph 51% 0 in
19:25 71.4 °F 53.6 °F 30 in West 3.4 mph 10.5 mph 53% 0 in
19:30 71.6 °F 53.6 °F 30 in NW 9.6 mph 9.6 mph 53% 0 in
19:35 71.6 °F 53.6 °F 30 in NNW 3.6 mph 9.6 mph 53% 0 in
19:40 71.6 °F 53.6 °F 30 in WNW 3.8 mph 9.6 mph 53% 0 in
19:46 71.2 °F 53.6 °F 30 in NNW 8.5 mph 9.4 mph 53% 0 in
19:51 71.1 °F 53.6 °F 30 in North 3.1 mph 8.7 mph 53% 0 in
19:56 71.2 °F 53.6 °F 30 in West 1.6 mph 8.5 mph 54% 0 in
20:01 71.6 °F 55.4 °F 30 in NNW 2 mph 8.5 mph 54% 0 in
20:06 71.6 °F 53.6 °F 30 in West 5.6 mph 6.3 mph 53% 0 in
20:11 70.3 °F 53.6 °F 30 in North 4.7 mph 7.4 mph 53% 0 in
20:16 69.6 °F 53.6 °F 30 in NW 1.1 mph 7.4 mph 56% 0 in
20:21 69.1 °F 53.6 °F 30 in North 1.3 mph 5.4 mph 57% 0 in
20:26 68.5 °F 53.6 °F 30 in NNW 1.1 mph 4 mph 58% 0 in
20:31 67.8 °F 53.6 °F 30 in NW 3.1 mph 4.3 mph 60% 0 in
20:36 67.5 °F 53.6 °F 30 in NW 2.5 mph 4.3 mph 61% 0 in
20:41 67.1 °F 53.6 °F 30 in Calm   4 mph 62% 0 in
20:47 66.7 °F 53.6 °F 30 in Calm   3.1 mph 63% 0 in
20:52 66.6 °F 55.4 °F 30 in Calm   3.4 mph 64% 0 in
20:57 66.4 °F 55.4 °F 30 in Calm   3.4 mph 65% 0 in
21:02 66.4 °F 55.4 °F 30 in Calm   2.9 mph 65% 0 in
21:07 66.4 °F 55.4 °F 30 in North 3.1 mph 4.7 mph 66% 0 in
21:12 66.2 °F 55.4 °F 30 in NNW 2.5 mph 4.7 mph 66% 0 in
21:17 66 °F 55.4 °F 30 in NNE 4.3 mph 4.7 mph 66% 0 in
21:22 65.8 °F 55.4 °F 30 in Calm   4.7 mph 67% 0 in
21:27 65.8 °F 55.4 °F 30 in Calm   4.7 mph 67% 0 in
21:32 65.7 °F 55.4 °F 30 in NNW 1.6 mph 3.6 mph 68% 0 in
21:37 65.5 °F 55.4 °F 30 in NNW 2.5 mph 3.4 mph 68% 0 in
21:42 65.5 °F 55.4 °F 30 in Calm   3.4 mph 68% 0 in
21:47 65.3 °F 55.4 °F 30 in Calm   2.9 mph 69% 0 in
21:52 65.3 °F 55.4 °F 30 in Calm   3.4 mph 69% 0 in
21:57 65.1 °F 55.4 °F 30 in Calm   3.4 mph 69% 0 in
22:02 65.1 °F 55.4 °F 30 in Calm     69% 0 in
22:07 64.9 °F 55.4 °F 30 in Calm   2.7 mph 70% 0 in
22:12 64.8 °F 55.4 °F 30 in Calm   3.6 mph 70% 0 in
22:17 64.8 °F 55.4 °F 30 in WNW 2.2 mph 3.6 mph 70% 0 in
22:22 64.8 °F 55.4 °F 30 in Calm   3.1 mph 70% 0 in
22:23 64.8 °F 55.4 °F 30 in Calm   3.1 mph 70% 0 in
22:28 64.6 °F 55.4 °F 30 in West 1.3 mph 2 mph 71% 0 in
22:33 64.4 °F 55.4 °F 30.1 in Calm   1.3 mph 71% 0 in
22:38 64.4 °F 55.4 °F 30.1 in Calm     72% 0 in
22:43 64.2 °F 55.4 °F 30.1 in Calm     73% 0 in
22:48 64 °F 55.4 °F 30.1 in Calm     74% 0 in
22:53 63.9 °F 55.4 °F 30.1 in Calm     76% 0 in
22:58 63.7 °F 55.4 °F 30.1 in SW 4.3 mph 4.9 mph 76% 0 in
23:04 63.9 °F 55.4 °F 30.1 in WSW 5.4 mph 6.5 mph 76% 0 in
23:09 63.9 °F 55.4 °F 30.1 in West 6 mph 7.6 mph 76% 0 in
23:14 63.9 °F 55.4 °F 30.1 in West 5.8 mph 7.8 mph 75% 0 in
23:19 64 °F 55.4 °F 30.1 in West 8.7 mph 9.2 mph 74% 0 in
23:24 64 °F 55.4 °F 30.1 in West 4.3 mph 9.2 mph 73% 0 in
23:29 63.9 °F 55.4 °F 30.1 in West 5.6 mph 8.9 mph 73% 0 in
23:34 63.9 °F 55.4 °F 30.1 in WSW 8.5 mph 9.6 mph 73% 0 in
23:39 63.9 °F 55.4 °F 30.1 in West 10.1 mph 13.9 mph 73% 0 in
23:44 63.9 °F 55.4 °F 30.1 in WSW 10.3 mph 13.9 mph 73% 0 in
23:49 63.7 °F 55.4 °F 30.1 in West 7.8 mph 11 mph 73% 0 in
23:54 63.5 °F 55.4 °F 30.1 in West 6 mph 10.1 mph 74% 0 in
23:59 63.5 °F 55.4 °F 30.1 in West 6.7 mph 8.7 mph 74% 0 in
Données Historique de Météo Turbie

Mise a jour : 18/06/2018 21:24:11
Généré par Cumulus 1.9.4 (1099)